EW8665 Weather Reports


Display with metric or nautical units.
time (UTC)temp
F
wind
direction
speed
MPH
gust
MPH
rain 1hr
in
rain 24hr
in
rain mn
in
humidity
%
barometer
mb
20260506170005 52 251 2.0 5.0 0.07 0.35 0.28 91 1008.3
20260506165504 52 254 3.0 8.0 0.07 0.35 0.28 91 1008.1
20260506165004 52 252 3.0 8.0 0.08 0.35 0.28 91 1008.2
20260506164508 52 237 4.0 7.0 0.07 0.34 0.27 90 1008.2
20260506163505 52 231 2.0 7.0 0.07 0.33 0.26 90 1008.2
20260506163004 52 227 1.0 6.0 0.07 0.32 0.25 90 1008.1
20260506162505 52 217 1.0 4.0 0.07 0.32 0.25 90 1008.0
20260506162004 52 227 3.0 7.0 0.07 0.31 0.24 89 1008.1
20260506161504 52 227 2.0 7.0 0.06 0.30 0.23 89 1008.2
20260506161005 52 215 2.0 4.0 0.05 0.29 0.22 89 1008.0
20260506155004 53 223 3.0 9.0 0.02 0.27 0.20 87 1008.1
20260506154504 53 224 3.0 9.0 0.02 0.26 0.19 87 1008.0
20260506154006 53 230 3.0 6.0 0.02 0.26 0.19 86 1008.1
20260506153505 53 230 3.0 8.0 0.02 0.26 0.18 86 1007.8
20260506153004 53 226 3.0 8.0 0.01 0.25 0.18 86 1007.9
20260506152505 53 226 3.0 7.0 0.01 0.25 0.18 86 1007.9
20260506152005 53 225 3.0 7.0 0.00 0.24 0.17 85 1007.8
20260506151504 53 247 3.0 5.0 0.01 0.24 0.17 86 1007.9
20260506151004 53 240 3.0 7.0 0.01 0.24 0.17 85 1007.7
20260506150505 52 237 3.0 7.0 0.01 0.24 0.17 85 1007.9
20260506150005 52 245 2.0 6.0 0.01 0.24 0.17 85 1007.8
20260506145505 52 246 4.0 10.0 0.02 0.24 0.17 85 1007.8
20260506144505 53 243 5.0 11.0 0.02 0.24 0.17 85 1007.9
20260506144004 53 246 5.0 9.0 0.02 0.24 0.17 85 1007.7
20260506143504 53 259 3.0 7.0 0.02 0.24 0.17 86 1007.9
20260506143004 53 244 3.0 7.0 0.02 0.24 0.17 86 1007.9
20260506142505 53 239 4.0 9.0 0.02 0.24 0.17 86 1007.7
20260506142004 53 240 5.0 11.0 0.02 0.26 0.17 86 1007.6
20260506141504 53 239 4.0 11.0 0.02 0.28 0.17 87 1007.9
20260506141005 54 241 3.0 11.0 0.02 0.29 0.17 88 1007.6
20260506135504 54 253 3.0 7.0 0.02 0.30 0.16 89 1007.6
20260506135004 54 252 4.0 10.0 0.02 0.30 0.15 89 1007.4
20260506134505 54 253 6.0 11.0 0.02 0.30 0.15 89 1007.6
20260506134004 54 249 4.0 11.0 0.02 0.29 0.15 90 1007.7
20260506133504 54 251 3.0 8.0 0.03 0.29 0.15 89 1007.5
20260506133004 53 256 4.0 10.0 0.03 0.29 0.15 89 1007.5
20260506132505 53 252 6.0 11.0 0.03 0.29 0.15 88 1007.6
20260506130504 54 246 7.0 13.0 0.06 0.29 0.14 90 1007.5
20260506130005 54 239 6.0 11.0 0.09 0.28 0.14 91 1007.3
20260506125505 54 243 7.0 13.0 0.10 0.28 0.14 91 1007.5
20260506125004 54 237 8.0 15.0 0.10 0.28 0.13 90 1007.2
20260506124504 54 232 8.0 15.0 0.10 0.28 0.13 91 1007.3
20260506124004 54 227 7.0 14.0 0.11 0.27 0.13 92 1007.3
20260506123504 54 219 6.0 14.0 0.11 0.27 0.12 92 1007.0
20260506123004 54 220 5.0 13.0 0.10 0.26 0.12 92 1006.9
20260506122005 54 215 7.0 12.0 0.10 0.26 0.11 88 1007.0
20260506121504 54 217 8.0 14.0 0.10 0.26 0.11 88 1006.9
20260506121005 55 220 7.0 14.0 0.09 0.25 0.10 88 1006.8
20260506120504 55 224 6.0 14.0 0.07 0.23 0.08 87 1006.6
20260506115008 56 234 5.0 10.0 0.03 0.18 0.03 86 1006.4
20260506114504 56 237 4.0 9.0 0.02 0.17 0.03 85 1006.6
20260506114005 56 238 5.0 9.0 0.02 0.17 0.02 84 1006.6
20260506113004 57 226 4.0 8.0 0.01 0.16 0.02 85 1006.5
20260506111505 57 236 4.0 8.0 0.00 0.16 0.01 83 1006.4
20260506111004 57 243 4.0 8.0 0.00 0.16 0.01 82 1006.3
20260506110504 57 251 4.0 8.0 0.00 0.16 0.01 83 1006.3
20260506110004 57 253 5.0 10.0 0.00 0.16 0.01 81 1006.3
20260506105504 57 254 5.0 10.0 0.00 0.16 0.00 80 1006.4
20260506105005 57 254 4.0 8.0 0.00 0.16 0.00 79 1006.5
20260506104504 57 249 4.0 8.0 0.00 0.16 0.00 79 1006.3
20260506103507 58 238 4.0 8.0 0.00 0.16 0.00 78 1006.4
20260506102504 58 248 4.0 8.0 0.00 0.16 0.00 76 1006.2
20260506101505 58 265 3.0 8.0 0.00 0.16 0.00 75 1006.2
20260506101004 58 269 3.0 7.0 0.00 0.16 0.00 75 1006.1
20260506100505 58 269 4.0 7.0 0.00 0.16 0.00 75 1006.1
20260506095505 58 263 6.0 10.0 0.00 0.16 0.00 75 1005.9
20260506094504 58 260 5.0 7.0 0.00 0.16 0.00 75 1005.9
20260506094004 58 257 4.0 8.0 0.00 0.16 0.00 75 1005.9
20260506093506 58 255 4.0 8.0 0.00 0.16 0.00 75 1005.6
20260506093004 58 249 4.0 7.0 0.00 0.16 0.00 74 1005.6
20260506092504 58 246 3.0 7.0 0.00 0.16 0.00 74 1005.7
20260506092005 58 244 5.0 11.0 0.00 0.16 0.00 74 1005.6
20260506091504 58 248 4.0 11.0 0.00 0.16 0.00 73 1005.6
20260506091004 58 251 3.0 8.0 0.00 0.16 0.00 74 1005.6
20260506090504 58 248 4.0 8.0 0.00 0.16 0.00 73 1005.6
20260506085507 58 255 4.0 10.0 0.00 0.16 0.00 73 1005.5
20260506085005 58 257 5.0 10.0 0.00 0.16 0.00 72 1005.5
20260506083504 58 226 3.0 8.0 0.00 0.16 0.00 73 1005.2
20260506083004 58 219 3.0 6.0 0.00 0.16 0.00 73 1005.4
20260506082504 58 223 3.0 5.0 0.00 0.16 0.00 74 1005.2
20260506081504 58 219 3.0 6.0 0.00 0.16 0.00 75 1005.2
20260506081005 58 221 4.0 7.0 0.00 0.16 0.00 74 1005.4
20260506080504 58 215 4.0 8.0 0.00 0.16 0.00 75 1005.3
20260506073504 56 238 4.0 8.0 0.00 0.16 0.00 76 1005.5
20260506073004 56 239 4.0 9.0 0.00 0.16 0.00 76 1005.4
20260506072504 56 222 4.0 9.0 0.00 0.16 0.00 76 1005.4
20260506072005 56 227 4.0 9.0 0.00 0.16 0.00 76 1005.3
20260506071504 56 225 3.0 5.0 0.00 0.16 0.00 76 1005.5
20260506071004 56 223 3.0 8.0 0.00 0.16 0.00 76 1005.3
20260506070504 56 225 2.0 8.0 0.00 0.16 0.00 76 1005.3
20260506062505 56 243 3.0 7.0 0.00 0.16 0.00 76 1005.6
20260506061504 56 238 4.0 8.0 0.00 0.16 0.00 77 1005.5
20260506061005 55 237 3.0 8.0 0.00 0.16 0.00 78 1005.6
20260506060504 55 237 3.0 6.0 0.00 0.16 0.00 79 1005.5
20260506051004 53 65 2.0 4.0 0.00 0.16 0.00 89 1005.6
20260506050504 52 75 2.0 4.0 0.00 0.16 0.00 89 1005.3
20260506045004 52 129 1.0 2.0 0.00 0.16 0.00 89 1005.7
20260506044004 52 146 1.0 6.0 0.00 0.16 0.00 89 1005.7
20260506043505 52 143 1.0 2.0 0.00 0.16 0.00 89 1005.8
20260506043004 52 150 1.0 3.0 0.00 0.16 0.00 89 1005.8
20260506042004 52 175 1.0 2.0 0.00 0.16 0.00 88 1005.7
20260506041506 53 201 0.0 2.0 0.00 0.16 0.00 86 1005.9
20260506041004 53 231 1.0 2.0 0.00 0.16 0.00 85 1005.7
20260506040505 53 236 1.0 3.0 0.00 0.16 0.00 85 1005.7
20260506040004 54 234 2.0 4.0 0.00 0.16 0.00 83 1005.7
20260506035504 54 239 2.0 4.0 0.00 0.16 0.00 82 1005.8
20260506035004 54 245 3.0 6.0 0.00 0.16 0.00 82 1006.1
20260506034504 54 240 4.0 8.0 0.00 0.16 0.00 82 1006.0
20260506034004 54 230 3.0 8.0 0.00 0.16 0.00 79 1006.2
20260506033504 55 232 4.0 8.0 0.00 0.16 0.00 79 1006.1
20260506033005 55 241 3.0 8.0 0.00 0.16 0.00 78 1006.1
20260506032504 55 238 3.0 8.0 0.00 0.16 0.00 79 1006.0
20260506032004 55 233 3.0 8.0 0.00 0.16 0.00 79 1006.1
20260506031504 55 230 3.0 8.0 0.00 0.16 0.00 79 1006.2
20260506031004 55 232 3.0 8.0 0.00 0.16 0.00 81 1005.9
20260506030504 54 228 3.0 7.0 0.00 0.16 0.00 83 1006.1
20260506025504 54 344 1.0 3.0 0.00 0.16 0.00 92 1006.1
20260506024504 53 23 1.0 4.0 0.00 0.16 0.00 93 1006.2
20260506024004 53 31 1.0 5.0 0.00 0.16 0.00 93 1006.4
20260506023504 53 38 2.0 5.0 0.00 0.16 0.00 93 1006.3
20260506022504 53 63 1.0 3.0 0.00 0.16 0.00 93 1006.4
20260506022005 53 72 1.0 3.0 0.00 0.16 0.00 93 1006.4
20260506021503 53 73 1.0 3.0 0.00 0.16 0.00 93 1006.5
20260506021004 53 69 1.0 3.0 0.00 0.16 0.00 94 1006.4
20260506020504 53 68 2.0 3.0 0.00 0.16 0.00 94 1006.4
20260506015005 52 70 2.0 3.0 0.00 0.16 0.00 94 1006.7
20260506014004 52 83 1.0 2.0 0.00 0.16 0.00 94 1006.7
20260506013504 52 86 2.0 3.0 0.00 0.16 0.00 93 1007.1
20260506012005 52 65 1.0 2.0 0.00 0.16 0.00 92 1007.0
20260506011504 52 62 1.0 2.0 0.00 0.16 0.00 92 1007.3
20260506011004 52 44 1.0 2.0 0.00 0.16 0.00 92 1007.3
20260506004504 52 46 2.0 4.0 0.00 0.16 0.00 92 1007.2
20260506003504 52 61 3.0 5.0 0.00 0.16 0.00 92 1007.4
20260506002504 52 38 2.0 3.0 0.00 0.16 0.00 92 1007.4
20260506002003 52 35 2.0 3.0 0.00 0.16 0.00 91 1007.5
20260506001504 52 37 2.0 5.0 0.00 0.16 0.00 91 1007.4
20260506001004 52 18 2.0 5.0 0.00 0.16 0.00 91 1007.5
20260506000504 52 10 2.0 5.0 0.00 0.16 0.00 92 1007.5
20260506000004 52 20 2.0 5.0 0.00 0.16 0.00 92 1007.7
20260505235504 52 24 2.0 5.0 0.00 0.16 0.00 93 1007.7
20260505234504 52 27 3.0 4.0 0.00 0.16 0.00 93 1007.9
20260505233004 52 49 2.0 5.0 0.00 0.16 0.00 93 1007.9
20260505232504 52 42 2.0 4.0 0.00 0.16 0.00 94 1008.1
20260505232007 52 22 1.0 4.0 0.00 0.16 0.00 94 1007.9
20260505231504 52 16 1.0 2.0 0.00 0.16 0.00 94 1008.0
20260505231004 52 11 1.0 3.0 0.00 0.16 0.00 94 1008.2
20260505230504 52 11 1.0 3.0 0.00 0.16 0.00 94 1008.1
20260505225504 52 10 3.0 6.0 0.00 0.16 0.00 94 1008.3
20260505225004 52 11 3.0 6.0 0.00 0.16 0.00 94 1008.1
20260505224004 52 17 3.0 5.0 0.00 0.16 0.00 95 1008.3
20260505223503 52 19 3.0 7.0 0.00 0.16 0.00 95 1008.2
20260505223004 52 20 4.0 7.0 0.00 0.16 0.00 95 1008.2
20260505222004 52 29 3.0 6.0 0.00 0.16 0.00 96 1008.2
20260505221004 52 35 2.0 5.0 0.00 0.16 0.00 96 1008.3
20260505215504 51 59 1.0 3.0 0.00 0.16 0.16 96 1008.5
20260505215004 52 53 1.0 2.0 0.00 0.16 0.16 96 1008.5
20260505214504 52 41 1.0 2.0 0.00 0.16 0.16 96 1008.5
20260505213505 52 27 1.0 2.0 0.00 0.16 0.16 96 1008.5
20260505213004 52 26 2.0 4.0 0.00 0.16 0.16 96 1008.4
20260505212504 52 20 2.0 4.0 0.00 0.16 0.16 96 1008.5
20260505212004 52 25 2.0 5.0 0.00 0.16 0.16 96 1008.6
20260505211504 52 27 2.0 5.0 0.00 0.16 0.16 96 1008.7
20260505211003 52 35 2.0 5.0 0.00 0.16 0.16 96 1008.7
20260505210504 52 35 2.0 5.0 0.00 0.16 0.16 96 1008.5
20260505210004 52 36 2.0 4.0 0.00 0.16 0.16 96 1008.6
20260505205504 52 45 3.0 4.0 0.00 0.16 0.16 96 1008.5
20260505205004 53 40 2.0 4.0 0.00 0.16 0.16 96 1008.7
20260505204503 53 39 1.0 3.0 0.00 0.16 0.16 96 1008.9
20260505204004 53 39 1.0 2.0 0.00 0.16 0.16 96 1008.6
20260505203004 53 29 1.0 2.0 0.00 0.16 0.16 96 1008.5
20260505201504 54 36 0.0 2.0 0.00 0.16 0.16 97 1008.5
20260505200504 54 42 0.0 2.0 0.00 0.16 0.16 97 1008.1
20260505200005 54 34 1.0 3.0 0.00 0.16 0.16 97 1008.2
20260505195004 54 38 0.0 2.0 0.00 0.16 0.16 97 1007.9
20260505194005 54 40 1.0 2.0 0.00 0.16 0.16 96 1007.9
20260505193503 54 36 1.0 2.0 0.00 0.16 0.16 96 1008.0
20260505193009 54 36 1.0 3.0 0.00 0.16 0.16 96 1007.9
20260505192504 54 29 1.0 3.0 0.00 0.16 0.16 96 1008.0
20260505192004 54 38 1.0 2.0 0.00 0.16 0.16 96 1008.0
20260505191003 54 31 1.0 3.0 0.00 0.16 0.16 91 1007.8
20260505190504 55 31 2.0 3.0 0.00 0.16 0.16 91 1007.6
20260505190004 55 26 1.0 3.0 0.00 0.16 0.16 91 1007.8
20260505185504 55 23 1.0 2.0 0.00 0.16 0.16 90 1007.8
20260505185005 55 14 2.0 4.0 0.00 0.16 0.16 89 1007.7
20260505184505 55 16 2.0 4.0 0.01 0.16 0.16 88 1007.7
20260505183505 56 355 2.0 5.0 0.07 0.16 0.16 86 1007.4
20260505183006 56 342 2.0 5.0 0.07 0.16 0.16 86 1007.3
20260505182505 57 313 1.0 3.0 0.07 0.16 0.16 86 1007.5
20260505182005 57 287 2.0 5.0 0.07 0.16 0.16 86 1007.4
20260505181505 57 273 3.0 5.0 0.07 0.16 0.16 85 1007.3
20260505181006 58 272 3.0 8.0 0.07 0.16 0.16 84 1007.3
20260505180505 58 257 3.0 8.0 0.07 0.16 0.16 83 1007.5
20260505180005 58 251 3.0 8.0 0.07 0.15 0.15 84 1007.5
20260505175005 59 244 3.0 10.0 0.07 0.15 0.15 83 1007.6
20260505174508 59 243 4.0 10.0 0.06 0.15 0.15 81 1007.6
20260505173506 61 227 3.0 8.0 0.00 0.09 0.09 77 1007.5
20260505173005 61 227 3.0 7.0 0.00 0.09 0.09 76 1007.4
20260505172005 62 240 3.0 6.0 0.00 0.09 0.09 74 1007.1
20260505171506 63 243 2.0 6.0 0.00 0.09 0.09 73 1007.1